| time (UTC) | temp F | wind direction | speed knots | gust knots | rain 1hr in | rain 24hr in | rain mn in | humidity % | barometer mb |
| 20260504110444 | 60 | 233 | 0.9 | 1.7 | 0.00 | 0.00 | 0.00 | 79 | 1006.1 |
| 20260504100407 | 60 | 244 | 0.0 | 0.0 | 0.00 | 0.00 | 0.00 | 78 | 1006.6 |
| 20260504081800 | 61 | 284 | 0.9 | 0.9 | 0.00 | 0.00 | 0.00 | 74 | 1006.9 |
| 20260504081256 | 61 | 227 | 0.9 | 0.9 | 0.00 | 0.00 | 0.00 | 74 | 1006.6 |
| 20260504080753 | 60 | 291 | 0.9 | 1.7 | 0.00 | 0.00 | 0.00 | 75 | 1006.8 |
| 20260504080249 | 61 | 291 | 0.9 | 0.9 | 0.00 | 0.00 | 0.00 | 75 | 1006.8 |
| 20260504070217 | 64 | 245 | 5.2 | 6.1 | 0.00 | 0.00 | 0.00 | 68 | 1005.8 |
| 20260504060137 | 63 | 233 | 7.0 | 7.8 | 0.00 | 0.00 | 0.00 | 68 | 1005.9 |
| 20260504050605 | 63 | 214 | 6.1 | 7.8 | 0.00 | 0.00 | 0.00 | 65 | 1006.0 |
| 20260504045559 | 63 | 213 | 7.8 | 8.7 | 0.00 | 0.00 | 0.00 | 64 | 1006.0 |
| 20260504045054 | 63 | 206 | 8.7 | 11.3 | 0.00 | 0.00 | 0.00 | 64 | 1006.2 |
| 20260504044552 | 63 | 227 | 7.8 | 7.8 | 0.00 | 0.00 | 0.00 | 65 | 1006.3 |
| 20260504044049 | 63 | 206 | 8.7 | 9.6 | 0.00 | 0.00 | 0.00 | 64 | 1006.5 |
| 20260504043546 | 64 | 219 | 11.3 | 13.0 | 0.00 | 0.00 | 0.00 | 63 | 1006.4 |
| 20260504043043 | 63 | 216 | 9.6 | 9.6 | 0.00 | 0.00 | 0.00 | 63 | 1006.8 |
| 20260504042540 | 63 | 179 | 8.7 | 9.6 | 0.00 | 0.00 | 0.00 | 63 | 1006.5 |
| 20260504042037 | 63 | 209 | 7.8 | 8.7 | 0.00 | 0.00 | 0.00 | 64 | 1006.7 |
| 20260504041533 | 63 | 220 | 10.4 | 13.0 | 0.00 | 0.00 | 0.00 | 63 | 1006.5 |
| 20260504041029 | 63 | 207 | 7.0 | 8.7 | 0.00 | 0.00 | 0.00 | 63 | 1006.7 |
| 20260504040527 | 62 | 216 | 7.8 | 7.8 | 0.00 | 0.00 | 0.00 | 64 | 1006.7 |
| 20260504040024 | 62 | 198 | 8.7 | 9.6 | 0.00 | 0.00 | 0.00 | 63 | 1006.9 |
| 20260504035521 | 62 | 199 | 6.1 | 7.8 | 0.00 | 0.00 | 0.00 | 65 | 1006.9 |
| 20260504035017 | 61 | 205 | 8.7 | 9.6 | 0.00 | 0.00 | 0.00 | 65 | 1006.7 |
| 20260504034515 | 61 | 204 | 7.8 | 8.7 | 0.00 | 0.00 | 0.00 | 65 | 1006.7 |
| 20260504034011 | 61 | 196 | 6.1 | 7.0 | 0.00 | 0.00 | 0.00 | 65 | 1006.9 |
| 20260504033509 | 61 | 204 | 8.7 | 9.6 | 0.00 | 0.00 | 0.00 | 65 | 1006.9 |
| 20260504033006 | 61 | 204 | 7.0 | 7.8 | 0.00 | 0.00 | 0.00 | 65 | 1007.0 |
| 20260504032503 | 61 | 184 | 7.0 | 7.8 | 0.00 | 0.00 | 0.00 | 66 | 1007.0 |
| 20260504032000 | 61 | 189 | 5.2 | 6.1 | 0.00 | 0.00 | 0.00 | 66 | 1007.0 |
| 20260504031456 | 61 | 211 | 6.1 | 7.0 | 0.00 | 0.00 | 0.00 | 65 | 1007.0 |
| 20260504030953 | 61 | 188 | 5.2 | 6.1 | 0.00 | 0.00 | 0.00 | 64 | 1007.0 |
| 20260504030450 | 61 | 219 | 4.3 | 5.2 | 0.00 | 0.00 | 0.00 | 64 | 1007.3 |
| 20260504025946 | 62 | 200 | 3.5 | 5.2 | 0.00 | 0.00 | 0.00 | 64 | 1007.5 |
| 20260504025443 | 62 | 181 | 3.5 | 5.2 | 0.00 | 0.00 | 0.00 | 63 | 1007.1 |
| 20260504024940 | 62 | 201 | 5.2 | 7.0 | 0.00 | 0.00 | 0.00 | 63 | 1007.5 |
| 20260504024437 | 62 | 209 | 5.2 | 7.0 | 0.00 | 0.00 | 0.00 | 63 | 1007.1 |
| 20260504023934 | 62 | 195 | 5.2 | 6.1 | 0.00 | 0.00 | 0.00 | 62 | 1007.5 |
| 20260504023431 | 62 | 201 | 3.5 | 5.2 | 0.00 | 0.00 | 0.00 | 63 | 1007.2 |
| 20260504022926 | 62 | 206 | 4.3 | 6.1 | 0.00 | 0.00 | 0.00 | 62 | 1007.1 |
| 20260504022423 | 62 | 211 | 4.3 | 5.2 | 0.00 | 0.00 | 0.00 | 61 | 1007.1 |
| 20260504021920 | 62 | 193 | 7.0 | 7.8 | 0.00 | 0.00 | 0.00 | 61 | 1007.3 |
| 20260504021417 | 62 | 195 | 6.1 | 9.6 | 0.00 | 0.00 | 0.00 | 60 | 1007.1 |
| 20260504020914 | 62 | 197 | 4.3 | 6.1 | 0.00 | 0.00 | 0.00 | 61 | 1006.9 |
| 20260504020411 | 62 | 201 | 4.3 | 5.2 | 0.00 | 0.00 | 0.00 | 61 | 1007.1 |
| 20260504015907 | 63 | 200 | 7.8 | 8.7 | 0.00 | 0.00 | 0.00 | 61 | 1007.1 |
| 20260504015403 | 62 | 198 | 4.3 | 5.2 | 0.00 | 0.00 | 0.00 | 61 | 1007.1 |
| 20260504014859 | 62 | 220 | 4.3 | 6.1 | 0.00 | 0.00 | 0.00 | 61 | 1007.2 |
| 20260504014355 | 63 | 211 | 5.2 | 7.0 | 0.00 | 0.00 | 0.00 | 60 | 1007.1 |
| 20260504013853 | 63 | 211 | 5.2 | 6.1 | 0.00 | 0.00 | 0.00 | 60 | 1007.1 |
| 20260504013351 | 63 | 180 | 7.0 | 8.7 | 0.00 | 0.00 | 0.00 | 59 | 1007.2 |
| 20260504012847 | 63 | 213 | 4.3 | 5.2 | 0.00 | 0.00 | 0.00 | 59 | 1007.2 |
| 20260504012345 | 63 | 194 | 7.0 | 7.8 | 0.00 | 0.00 | 0.00 | 59 | 1007.3 |
| 20260504011842 | 63 | 201 | 6.1 | 7.0 | 0.00 | 0.00 | 0.00 | 60 | 1007.1 |
| 20260504011338 | 64 | 192 | 3.5 | 5.2 | 0.00 | 0.00 | 0.00 | 59 | 1007.3 |
| 20260504010835 | 64 | 204 | 5.2 | 7.0 | 0.00 | 0.00 | 0.00 | 58 | 1007.1 |
| 20260504010330 | 64 | 195 | 6.1 | 7.8 | 0.00 | 0.00 | 0.00 | 56 | 1007.2 |
| 20260504005827 | 64 | 202 | 7.8 | 7.8 | 0.00 | 0.00 | 0.00 | 56 | 1007.1 |
| 20260504005324 | 64 | 185 | 7.0 | 7.8 | 0.00 | 0.00 | 0.00 | 56 | 1007.3 |
| 20260504004822 | 65 | 209 | 7.0 | 7.8 | 0.00 | 0.00 | 0.00 | 56 | 1007.1 |
| 20260504004319 | 65 | 204 | 8.7 | 8.7 | 0.00 | 0.00 | 0.00 | 56 | 1007.2 |
| 20260504003815 | 65 | 196 | 7.8 | 8.7 | 0.00 | 0.00 | 0.00 | 54 | 1007.2 |
| 20260504003313 | 66 | 197 | 5.2 | 7.0 | 0.00 | 0.00 | 0.00 | 56 | 1007.3 |
| 20260504002809 | 66 | 205 | 7.0 | 8.7 | 0.00 | 0.00 | 0.00 | 54 | 1007.5 |
| 20260504002306 | 66 | 195 | 6.1 | 7.0 | 0.00 | 0.00 | 0.00 | 53 | 1007.5 |
| 20260504001804 | 67 | 192 | 7.0 | 8.7 | 0.00 | 0.00 | 0.00 | 51 | 1007.6 |
| 20260504001300 | 67 | 202 | 7.8 | 8.7 | 0.00 | 0.00 | 0.00 | 52 | 1007.4 |
| 20260504000757 | 67 | 198 | 5.2 | 6.1 | 0.00 | 0.00 | 0.00 | 51 | 1007.4 |
| 20260504000254 | 68 | 207 | 7.8 | 8.7 | 0.00 | 0.00 | 0.00 | 51 | 1007.3 |
| 20260503235752 | 68 | 197 | 7.8 | 11.3 | 0.00 | 0.00 | 0.00 | 51 | 1007.2 |
| 20260503235249 | 68 | 210 | 4.3 | 6.1 | 0.00 | 0.00 | 0.00 | 51 | 1007.1 |
| 20260503234747 | 68 | 202 | 8.7 | 11.3 | 0.00 | 0.00 | 0.00 | 49 | 1007.4 |
| 20260503234245 | 68 | 213 | 10.4 | 12.2 | 0.00 | 0.00 | 0.00 | 47 | 1007.3 |
| 20260503233742 | 68 | 223 | 8.7 | 8.7 | 0.00 | 0.00 | 0.00 | 49 | 1007.5 |
| 20260503233237 | 68 | 209 | 11.3 | 13.9 | 0.00 | 0.00 | 0.00 | 48 | 1007.5 |
| 20260503232734 | 68 | 170 | 8.7 | 9.6 | 0.00 | 0.00 | 0.00 | 49 | 1007.3 |
| 20260503232232 | 69 | 197 | 7.8 | 9.6 | 0.00 | 0.00 | 0.00 | 48 | 1007.5 |
| 20260503231730 | 69 | 226 | 12.2 | 13.9 | 0.00 | 0.00 | 0.00 | 46 | 1007.2 |
| 20260503231226 | 69 | 207 | 11.3 | 13.9 | 0.00 | 0.00 | 0.00 | 47 | 1007.5 |
| 20260503230722 | 69 | 168 | 13.0 | 18.2 | 0.00 | 0.00 | 0.00 | 46 | 1007.4 |
| 20260503230220 | 69 | 194 | 13.0 | 14.8 | 0.00 | 0.00 | 0.00 | 47 | 1007.4 |
| 20260503225717 | 69 | 194 | 12.2 | 14.8 | 0.00 | 0.00 | 0.00 | 45 | 1007.4 |
| 20260503225217 | 69 | 194 | 12.2 | 14.8 | 0.00 | 0.00 | 0.00 | 47 | 1007.4 |
| 20260503224715 | 69 | 210 | 7.8 | 9.6 | 0.00 | 0.00 | 0.00 | 50 | 1007.4 |
| 20260503224212 | 69 | 190 | 11.3 | 13.9 | 0.00 | 0.00 | 0.00 | 48 | 1007.4 |
| 20260503223710 | 69 | 193 | 8.7 | 9.6 | 0.00 | 0.00 | 0.00 | 47 | 1007.6 |
| 20260503223207 | 69 | 200 | 13.0 | 15.6 | 0.00 | 0.00 | 0.00 | 49 | 1007.6 |
| 20260503222703 | 69 | 194 | 13.0 | 15.6 | 0.00 | 0.00 | 0.00 | 48 | 1007.7 |
| 20260503222201 | 69 | 199 | 8.7 | 9.6 | 0.00 | 0.00 | 0.00 | 48 | 1007.8 |
| 20260503221700 | 69 | 198 | 13.0 | 16.5 | 0.00 | 0.00 | 0.00 | 48 | 1007.7 |
| 20260503221156 | 69 | 178 | 10.4 | 15.6 | 0.00 | 0.00 | 0.00 | 47 | 1007.7 |
| 20260503220653 | 69 | 201 | 14.8 | 18.2 | 0.00 | 0.00 | 0.00 | 46 | 1007.8 |
| 20260503220149 | 69 | 193 | 19.1 | 20.9 | 0.00 | 0.00 | 0.00 | 45 | 1007.7 |
| 20260503215647 | 69 | 194 | 10.4 | 13.0 | 0.00 | 0.00 | 0.00 | 48 | 1007.9 |
| 20260503215143 | 69 | 208 | 11.3 | 15.6 | 0.00 | 0.00 | 0.00 | 48 | 1007.8 |
| 20260503214643 | 69 | 211 | 17.4 | 19.1 | 0.00 | 0.00 | 0.00 | 46 | 1008.1 |
| 20260503214138 | 69 | 201 | 14.8 | 19.1 | 0.00 | 0.00 | 0.00 | 46 | 1007.9 |
| 20260503213637 | 68 | 175 | 14.8 | 16.5 | 0.00 | 0.00 | 0.00 | 49 | 1008.1 |
| 20260503213133 | 68 | 158 | 11.3 | 13.0 | 0.00 | 0.00 | 0.00 | 45 | 1008.2 |
| 20260503212631 | 68 | 215 | 15.6 | 18.2 | 0.00 | 0.00 | 0.00 | 49 | 1008.3 |
| 20260503212128 | 69 | 217 | 13.9 | 16.5 | 0.00 | 0.00 | 0.00 | 47 | 1008.4 |
| 20260503211626 | 68 | 180 | 10.4 | 12.2 | 0.00 | 0.00 | 0.00 | 45 | 1008.5 |
| 20260503211121 | 69 | 199 | 12.2 | 14.8 | 0.00 | 0.00 | 0.00 | 45 | 1008.6 |
| 20260503210618 | 69 | 191 | 8.7 | 12.2 | 0.00 | 0.00 | 0.00 | 48 | 1008.8 |
| 20260503210115 | 68 | 178 | 12.2 | 13.9 | 0.00 | 0.00 | 0.00 | 48 | 1009.0 |
| 20260503205610 | 68 | 207 | 12.2 | 14.8 | 0.00 | 0.00 | 0.00 | 49 | 1009.0 |
| 20260503205107 | 68 | 187 | 14.8 | 18.2 | 0.00 | 0.00 | 0.00 | 48 | 1009.2 |
| 20260503204604 | 68 | 205 | 14.8 | 15.6 | 0.00 | 0.00 | 0.00 | 49 | 1009.2 |
| 20260503204101 | 68 | 186 | 13.9 | 16.5 | 0.00 | 0.00 | 0.00 | 49 | 1009.7 |
| 20260503203558 | 68 | 196 | 13.0 | 19.1 | 0.00 | 0.00 | 0.00 | 49 | 1009.5 |
| 20260503203055 | 68 | 176 | 13.9 | 16.5 | 0.00 | 0.00 | 0.00 | 48 | 1009.7 |
| 20260503202553 | 68 | 200 | 14.8 | 16.5 | 0.00 | 0.00 | 0.00 | 49 | 1010.2 |
| 20260503202051 | 67 | 199 | 13.0 | 14.8 | 0.00 | 0.00 | 0.00 | 51 | 1010.0 |
| 20260503201549 | 68 | 194 | 11.3 | 13.0 | 0.00 | 0.00 | 0.00 | 50 | 1010.1 |
| 20260503201046 | 67 | 209 | 14.8 | 18.2 | 0.00 | 0.00 | 0.00 | 50 | 1010.1 |
| 20260503200541 | 67 | 217 | 13.0 | 14.8 | 0.00 | 0.00 | 0.00 | 50 | 1010.4 |
| 20260503200038 | 67 | 178 | 9.6 | 12.2 | 0.00 | 0.00 | 0.00 | 52 | 1010.7 |
| 20260503195536 | 67 | 201 | 13.0 | 13.9 | 0.00 | 0.00 | 0.00 | 47 | 1010.7 |
| 20260503195032 | 67 | 210 | 12.2 | 13.9 | 0.00 | 0.00 | 0.00 | 53 | 1011.1 |
| 20260503194530 | 67 | 203 | 8.7 | 11.3 | 0.00 | 0.00 | 0.00 | 52 | 1011.3 |
| 20260503194029 | 67 | 201 | 16.5 | 20.9 | 0.00 | 0.00 | 0.00 | 50 | 1011.2 |
| 20260503193527 | 66 | 206 | 10.4 | 13.0 | 0.00 | 0.00 | 0.00 | 51 | 1011.3 |
| 20260503193021 | 66 | 195 | 10.4 | 16.5 | 0.00 | 0.00 | 0.00 | 51 | 1011.6 |
| 20260503192518 | 66 | 184 | 13.9 | 19.1 | 0.00 | 0.00 | 0.00 | 52 | 1011.8 |
| 20260503192014 | 66 | 182 | 12.2 | 13.0 | 0.00 | 0.00 | 0.00 | 49 | 1012.0 |
| 20260503191511 | 66 | 202 | 11.3 | 13.0 | 0.00 | 0.00 | 0.00 | 53 | 1012.1 |
| 20260503191008 | 65 | 221 | 17.4 | 20.0 | 0.00 | 0.00 | 0.00 | 49 | 1012.3 |
| 20260503190504 | 65 | 233 | 12.2 | 13.9 | 0.00 | 0.00 | 0.00 | 52 | 1012.3 |
| 20260503190001 | 66 | 235 | 7.8 | 9.6 | 0.00 | 0.00 | 0.00 | 55 | 1012.4 |
| 20260503185458 | 65 | 197 | 12.2 | 14.8 | 0.00 | 0.00 | 0.00 | 52 | 1012.5 |
| 20260503184957 | 65 | 203 | 10.4 | 12.2 | 0.00 | 0.00 | 0.00 | 50 | 1012.6 |
| 20260503184454 | 65 | 208 | 10.4 | 12.2 | 0.00 | 0.00 | 0.00 | 50 | 1012.7 |
| 20260503183950 | 65 | 213 | 17.4 | 19.1 | 0.00 | 0.00 | 0.00 | 50 | 1012.8 |
| 20260503183447 | 65 | 213 | 12.2 | 14.8 | 0.00 | 0.00 | 0.00 | 53 | 1013.1 |
| 20260503182944 | 65 | 202 | 9.6 | 12.2 | 0.00 | 0.00 | 0.00 | 54 | 1013.2 |
| 20260503182443 | 65 | 195 | 12.2 | 14.8 | 0.00 | 0.00 | 0.00 | 54 | 1013.2 |
| 20260503181940 | 64 | 208 | 9.6 | 13.0 | 0.00 | 0.00 | 0.00 | 54 | 1013.3 |
| 20260503181437 | 64 | 189 | 14.8 | 16.5 | 0.00 | 0.00 | 0.00 | 53 | 1013.4 |
| 20260503180933 | 64 | 188 | 7.8 | 9.6 | 0.00 | 0.00 | 0.00 | 56 | 1013.7 |
| 20260503180432 | 63 | 219 | 10.4 | 13.0 | 0.00 | 0.00 | 0.00 | 55 | 1013.6 |
| 20260503175928 | 64 | 227 | 8.7 | 9.6 | 0.00 | 0.00 | 0.00 | 55 | 1013.8 |
| 20260503175426 | 64 | 189 | 9.6 | 12.2 | 0.00 | 0.00 | 0.00 | 53 | 1014.1 |
| 20260503174921 | 64 | 220 | 13.9 | 15.6 | 0.00 | 0.00 | 0.00 | 53 | 1014.1 |
| 20260503174420 | 63 | 204 | 9.6 | 11.3 | 0.00 | 0.00 | 0.00 | 53 | 1014.3 |
| 20260503173920 | 63 | 193 | 17.4 | 21.7 | 0.00 | 0.00 | 0.00 | 53 | 1014.5 |
| 20260503173416 | 63 | 198 | 13.0 | 14.8 | 0.00 | 0.00 | 0.00 | 55 | 1014.5 |
| 20260503172913 | 62 | 194 | 20.0 | 22.6 | 0.00 | 0.00 | 0.00 | 53 | 1014.4 |
| 20260503172411 | 63 | 204 | 8.7 | 11.3 | 0.00 | 0.00 | 0.00 | 56 | 1014.5 |
| 20260503171907 | 62 | 199 | 10.4 | 13.0 | 0.00 | 0.00 | 0.00 | 55 | 1014.5 |
| 20260503171404 | 61 | 207 | 15.6 | 18.2 | 0.00 | 0.00 | 0.00 | 54 | 1014.7 |
| 20260503170901 | 62 | 191 | 8.7 | 13.0 | 0.00 | 0.00 | 0.00 | 57 | 1014.6 |
| 20260503170357 | 61 | 205 | 17.4 | 20.0 | 0.00 | 0.00 | 0.00 | 54 | 1014.7 |
| 20260503150749 | 57 | 200 | 10.4 | 12.2 | 0.00 | 0.00 | 0.00 | 66 | 1016.2 |
| 20260503150246 | 57 | 203 | 10.4 | 11.3 | 0.00 | 0.00 | 0.00 | 65 | 1016.3 |
| 20260503140210 | 54 | 188 | 7.8 | 8.7 | 0.00 | 0.00 | 0.00 | 73 | 1016.3 |
| 20260503131140 | 50 | 202 | 8.7 | 9.6 | 0.00 | 0.00 | 0.00 | 80 | 1016.4 |
| 20260503130637 | 50 | 194 | 5.2 | 6.1 | 0.00 | 0.00 | 0.00 | 81 | 1016.2 |
| 20260503130135 | 50 | 199 | 7.8 | 9.6 | 0.00 | 0.00 | 0.00 | 81 | 1016.1 |